Погода в Кигоме

Танзания     4°53′50″S   29°39′23″E
темп.,
°C
ветер,
м/с
пор.,
м/с
влажн.,
%
обл.,
%
осадки,
мм/ч
давл.,
гПа
погр.,
м
16 апреля, пт
пт1600:00+21всв228995 0.8 101290
03:00+20св238899 1.0 101182
06:00+19всв3493100 4.3 1012121
09:00+21в2386100 6.1 1014202
12:00+22ю5689100 2.9 1015627
15:00+23ю3483100 3.6 1011562
18:00+23ю118095 0.1 1011458
21:00+21ююв018474 0.1 1012234
17 апреля, сб
сб1700:00+20в3390100 0.0 1013133
03:00+20всв378799 0.0 1011211
06:00+20всв368598 0.0 1012195
09:00+22всв59815 0.0 1014394
12:00+26всв45648 0.0 10131248
15:00+28вюв235961 0.3 10091265
18:00+25ю11775 1.3 1009281
21:00+22в228381 1.5 1012136
18 апреля, вс
вс1800:00+21всв3588100 0.2 1013133
03:00+20всв3689100 2.1 1012163
06:00+20всв389063 1.6 1013244
09:00+22в5118660 1.9 1015602
12:00+26в576652 0.0 10141382
15:00+26вюв357054 2.3 10111060
18:00+24в368074 2.9 1012393
21:00+21всв5118411 3.6 1014325
19 апреля, пн
пн1900:00+21всв348297 0.0 1014118
03:00+22всв2378100 0.0 101298
06:00+21всв4879100 0.0 1013276
09:00+22всв51078100 0.0 1015517
12:00+26в566397 0.0 10141156
15:00+28в245891 0.1 10111354
18:00+25юз117465 0.5 1010166
21:00+23в237941 0.6 1013145
20 апреля, вт
вт2000:00+21всв378767 0.0 1014214
03:00+20всв4889100 0.3 1012246
06:00+20всв4889100 0.4 1013231
09:00+22всв5984100 0.4 1015423
12:00+26в466383 0.1 10141231
15:00+27ю126595 1.1 1010965
18:00+24ю227794 1.6 1010313
21:00+22вюв1181100 1.9 101295